EW5523 Weather Reports


Display with metric or nautical units.
time (UTC)temp
F
wind
direction
speed
MPH
gust
MPH
rain 1hr
in
rain 24hr
in
rain mn
in
humidity
%
barometer
mb
20260507073100 68 341 0.0 9.0 0.00 0.00 0.00 53 1011.5
20260507071546 67 50 2.0 11.0 0.00 0.00 0.00 54 1011.4
20260507070119 66 49 4.0 11.0 0.00 0.00 0.00 56 1011.3
20260507064547 66 13 4.0 12.0 0.00 0.00 0.00 58 1011.2
20260507063040 66 47 4.0 11.0 0.00 0.00 0.00 60 1011.3
20260507061538 65 33 3.0 12.0 0.00 0.00 0.00 61 1011.1
20260507060042 65 48 1.0 10.0 0.00 0.00 0.00 63 1011.1
20260507054536 64 11 1.0 8.0 0.00 0.00 0.00 64 1011.0
20260507053039 64 37 1.0 11.0 0.00 0.00 0.00 65 1011.0
20260507051534 63 45 3.0 11.0 0.00 0.00 0.00 68 1010.9
20260507050034 63 23 0.0 12.0 0.00 0.00 0.00 71 1010.8
20260507044543 62 354 1.0 10.0 0.00 0.00 0.00 71 1010.7
20260507043037 62 354 0.0 10.0 0.00 0.00 0.00 72 1010.5
20260507041528 61 27 4.0 13.0 0.00 0.00 0.00 72 1010.4
20260507040027 61 27 2.0 11.0 0.00 0.00 0.00 73 1010.2
20260507034527 61 354 2.0 10.0 0.00 0.00 0.00 74 1010.1
20260507033026 61 29 1.0 9.0 0.00 0.00 0.00 76 1009.9
20260507031523 60 339 1.0 9.0 0.00 0.00 0.00 77 1009.7
20260507030022 60 330 1.0 10.0 0.00 0.00 0.00 77 1009.4
20260507024521 60 335 0.0 8.0 0.00 0.00 0.00 77 1009.3
20260507023019 59 35 0.0 7.0 0.00 0.00 0.00 77 1009.2
20260507021516 59 299 0.0 3.0 0.00 0.00 0.00 77 1008.9
20260507020015 58 359 0.0 2.0 0.00 0.00 0.00 78 1008.7
20260507014514 58 318 0.0 2.0 0.00 0.00 0.00 78 1008.5
20260507013012 58 341 0.0 1.0 0.00 0.00 0.00 78 1008.3
20260507011510 57 334 0.0 0.0 0.00 0.00 0.00 78 1008.0
20260507010009 58 328 0.0 0.0 0.00 0.00 0.00 76 1007.9
20260507004506 58 338 0.0 0.0 0.00 0.00 0.00 76 1007.7
20260507003005 58 347 0.0 0.0 0.00 0.00 0.00 75 1007.6
20260507001508 58 347 0.0 0.0 0.00 0.00 0.00 75 1007.4
20260507000002 58 347 0.0 0.0 0.00 0.00 0.00 73 1007.3
20260506234600 58 349 0.0 0.0 0.00 0.00 0.00 72 1007.2
20260506233057 59 349 0.0 0.0 0.00 0.00 0.00 72 1007.0
20260506231554 59 305 0.0 0.0 0.00 0.00 0.00 72 1006.8
20260506224550 59 302 0.0 0.0 0.00 0.00 0.00 70 1006.4
20260506223049 59 302 0.0 0.0 0.00 0.00 0.00 71 1006.3
20260506221548 60 302 0.0 0.0 0.00 0.00 0.00 69 1006.1
20260506220049 59 302 0.0 0.0 0.00 0.00 0.00 70 1006.2
20260506214545 60 302 0.0 0.0 0.00 0.00 0.00 68 1005.9
20260506213042 60 302 0.0 0.0 0.00 0.00 0.00 67 1005.8
20260506211541 61 330 0.0 0.0 0.00 0.00 0.00 66 1006.0
20260506210036 62 330 0.0 0.0 0.00 0.00 0.00 64 1006.0
20260506204534 63 330 0.0 1.0 0.00 0.00 0.00 62 1005.9
20260506203031 64 354 0.0 0.0 0.00 0.00 0.00 60 1005.7
20260506201540 65 359 0.0 2.0 0.00 0.00 0.00 58 1005.7
20260506200028 65 22 0.0 1.0 0.00 0.00 0.00 57 1005.8
20260506194527 65 10 0.0 12.0 0.00 0.00 0.00 55 1005.9
20260506193026 66 243 0.0 0.0 0.00 0.00 0.00 52 1005.4
20260506191524 67 243 0.0 0.0 0.00 0.00 0.00 51 1005.4
20260506190023 67 243 0.0 0.0 0.00 0.00 0.00 50 1005.3
20260506184524 69 308 0.0 0.0 0.00 0.00 0.00 48 1005.5
20260506183023 70 318 0.0 1.0 0.00 0.00 0.00 46 1005.4
20260506181522 69 301 0.0 3.0 0.00 0.00 0.00 48 1005.5
20260506180021 70 210 0.0 0.0 0.00 0.00 0.00 48 1005.5
20260506174522 71 198 0.0 0.0 0.00 0.00 0.00 46 1005.3
20260506173020 71 198 0.0 0.0 0.00 0.00 0.00 44 1005.4
20260506171520 72 198 0.0 0.0 0.00 0.00 0.00 43 1005.4
20260506170020 72 198 0.0 0.0 0.00 0.00 0.00 42 1005.3
20260506164519 73 198 0.0 0.0 0.00 0.00 0.00 41 1005.2
20260506163036 73 198 0.0 0.0 0.00 0.00 0.00 40 1005.1
20260506161519 74 198 0.0 0.0 0.00 0.00 0.00 39 1005.1
20260506160018 76 198 0.0 0.0 0.00 0.00 0.00 37 1005.1
20260506154524 77 194 0.0 0.0 0.00 0.00 0.00 36 1004.9
20260506153017 78 194 0.0 2.0 0.00 0.00 0.00 36 1004.9
20260506151516 78 200 0.0 0.0 0.00 0.00 0.00 35 1005.1
20260506150017 77 264 1.0 4.0 0.00 0.00 0.00 35 1005.1
20260506144517 77 278 0.0 8.0 0.00 0.00 0.00 36 1005.1
20260506143017 77 272 0.0 4.0 0.00 0.00 0.00 36 1005.1
20260506141515 78 322 1.0 9.0 0.00 0.00 0.00 35 1005.0
20260506140015 79 267 1.0 9.0 0.00 0.00 0.00 35 1004.8
20260506134515 79 247 0.0 5.0 0.00 0.00 0.00 34 1005.0
20260506133015 79 281 0.0 6.0 0.00 0.00 0.00 34 1004.9
20260506131517 80 283 0.0 8.0 0.00 0.00 0.00 33 1004.9
20260506130015 82 289 1.0 9.0 0.00 0.00 0.00 31 1004.8
20260506124512 81 305 1.0 11.0 0.00 0.00 0.00 31 1004.9
20260506123011 81 285 3.0 14.0 0.00 0.00 0.00 31 1005.1
20260506121509 81 287 5.0 11.0 0.00 0.00 0.00 32 1005.1
20260506120008 81 277 3.0 12.0 0.00 0.00 0.00 30 1005.3
20260506114508 81 243 3.0 13.0 0.00 0.00 0.00 31 1005.4
20260506113008 81 345 4.0 14.0 0.00 0.00 0.00 31 1005.5
20260506111504 80 278 2.0 11.0 0.00 0.00 0.00 32 1005.5
20260506110005 80 232 3.0 14.0 0.00 0.00 0.00 32 1005.7
20260506104502 79 226 2.0 10.0 0.00 0.00 0.00 33 1005.9
20260506103002 80 299 1.0 10.0 0.00 0.00 0.00 33 1006.0
20260506101600 81 268 0.0 12.0 0.00 0.00 0.00 31 1006.0
20260506100058 81 287 1.0 9.0 0.00 0.00 0.00 33 1006.0
20260506094557 80 203 1.0 10.0 0.00 0.00 0.00 34 1006.1
20260506093110 80 236 1.0 11.0 0.00 0.00 0.00 34 1006.2
20260506091553 79 245 1.0 7.0 0.00 0.00 0.00 36 1006.3
20260506090058 80 263 1.0 14.0 0.00 0.00 0.00 35 1006.5
20260506084550 80 179 2.0 9.0 0.00 0.00 0.00 35 1006.5
20260506083047 80 255 0.0 8.0 0.00 0.00 0.00 36 1006.6
20260506081545 79 278 1.0 5.0 0.00 0.00 0.00 37 1006.7